Location: Luxembourg
(49.6117°N, 6.1300°E)
Time: 10:48:12
(UTC+01:00)

ISS - Pass Details

Date: 29 January 2019
Orbit: 403 x 411 km, 51.6° (Epoch: 22 February)

Event Time Altitude Azimuth Distance (km) Brightness Sun altitude
Rises 19:50:13 0° 274° (W) 2,336 1.5 -23.4°
Reaches altitude 10° 19:52:20 10° 279° (W) 1,477 0.1 -23.8°
Enters shadow 19:54:29 35° 297° (WNW) 682 -2.3 -24.1°
